Terminal Aerodrome Forecast
Issued by NWS Kansas City/Pleasant Hill, MO

Home | Current Version | Previous Version | Text Only | Print | Product List | Glossary On
Versions: 1 2 3 4 5 6 7 8 9 10 11 12 13 14 15 16 17 18 19 20 21 22 23 24 25
248
FTUS43 KEAX 250618 AAA
TAFMCI
TAF AMD
KMCI 250618Z 2506/2606 VRB05KT P6SM VCSH BKN025
      TEMPO 2506/2509 3SM BR BKN003
     FM250900 03006KT P6SM VCSH OVC008
     FM251700 35011KT P6SM VCTS OVC008CB
     FM260000 33008KT P6SM OVC008
     FM260500 32006KT P6SM BKN010=

USA.gov is the U.S. government's official web portal to all federal, state and local government web resources and services.